GFSFLT1_con_lsi_132.txt.gz
Lid_Strength_Index
11 10 9 6 4 3 2 3 3 3 3 2 2 2 2 3 3 3 3 3 3 4 3 3 3 3 3 2 2 2 2 2
12 12 10 9 6 4 3 3 4 4 3 3 3 3 3 3 4 3 4 4 4 4 4 3 3 2 2 2 2 3 3 3
13 13 13 12 8 6 5 4 3 4 4 4 4 5 4 4 3 5 4 4 4 3 3 2 2 2 2 2 3 3 3 3
14 13 13 13 12 9 8 6 6 5 5 6 5 5 5 4 5 5 5 4 3 3 2 2 2 2 2 2 3 4 4 4
14 13 13 14 13 13 11 9 8 7 6 6 6 6 7 7 6 6 5 5 4 5 4 5 5 5 6 6 6 6 6 6
13 13 14 14 13 13 12 12 12 11 10 10 10 11 11 11 10 7 7 7 7 7 7 8 7 8 8 9 8 8 8 8
13 13 13 13 13 12 12 12 11 11 11 11 11 12 12 12 12 10 10 10 10 10 10 10 10 9 9 9 8 8 9 9
13 13 13 13 12 12 12 12 11 12 13 13 13 12 13 13 13 13 13 13 12 12 11 11 10 10 10 10 10 9 10 10
13 13 13 12 12 12 12 12 12 13 13 14 13 14 14 14 14 14 14 13 13 12 11 11 12 10 10 10 11 11 10 11
11 13 13 12 12 12 13 13 13 14 14 14 14 15 15 16 15 14 14 13 13 13 13 13 13 11 10 11 12 12 12 12
12 12 12 12 12 13 14 14 14 14 14 15 15 16 16 15 15 15 14 14 13 14 13 14 14 11 10 11 13 13 14 15
13 12 12 13 14 14 14 14 14 15 16 16 17 16 16 15 15 14 14 14 14 14 14 14 14 13 11 10 13 13 13 13
13 14 14 14 14 14 15 16 17 16 16 15 15 15 15 13 14 13 13 13 14 14 15 15 16 12 11 10 10 10 12 12
14 15 15 16 15 15 16 16 16 15 15 15 14 14 14 13 13 13 13 14 14 14 15 17 17 17 12 11 11 11 12 12
16 16 17 19 17 17 16 16 15 15 15 15 15 14 13 13 13 13 14 15 15 15 15 15 19 18 17 16 13 13 12 12
16 16 18 18 17 17 16 15 16 16 16 16 15 15 16 16 17 17 20 17 19 21 17 16 16 18 13 14 15 13 12 13
18 18 19 19 19 18 17 15 16 16 17 17 17 17 16 15 15 13 13 12 12 13 16 20 13 12 12 11 11 11 11 13
19 20 20 21 21 21 20 17 16 17 18 19 18 18 18 18 16 16 14 13 13 13 13 13 13 12 12 11 11 11 13 14
22 23 22 22 22 21 18 16 16 16 17 16 16 18 19 20 18 19 19 20 22 18 16 13 13 13 13 13 15 20 18 21
25 24 22 22 24 23 18 16 16 15 16 16 16 17 18 18 19 19 19 20 21 27 21 23 16 16 15 17 21 20 21 24

GFSFLT1_con_lsi_135.txt.gz
Lid_Strength_Index
10 9 9 7 4 3 3 4 3 3 3 2 2 1 1 1 2 2 2 3 3 3 2 2 2 2 2 2 2 2 2 2
10 10 9 9 6 4 3 3 4 4 3 2 2 2 2 2 2 2 3 3 3 3 3 3 3 3 3 2 2 2 2 2
10 11 11 10 8 5 3 3 4 3 3 3 2 2 2 2 2 3 3 4 3 3 3 3 3 2 2 2 2 2 3 3
13 12 12 11 10 7 5 4 4 5 4 4 3 3 3 3 3 4 3 4 4 4 3 3 2 2 2 2 2 3 3 4
13 13 13 12 11 10 8 7 6 5 5 5 5 4 4 5 5 4 4 4 4 3 4 4 4 4 6 6 6 6 6 7
13 13 13 13 13 12 10 9 8 7 6 6 7 7 6 6 6 6 6 6 6 6 7 8 7 8 8 8 7 7 8 8
12 13 13 13 13 13 12 12 10 9 9 10 10 10 10 11 11 10 10 9 9 10 9 9 10 9 9 8 8 8 9 8
12 12 12 12 12 12 12 12 12 12 12 12 12 12 12 13 12 11 10 10 11 10 10 10 10 9 9 10 9 8 8 9
12 12 12 12 12 12 12 12 13 13 13 13 13 13 13 13 13 13 13 13 13 12 11 11 11 10 10 11 10 10 10 10
10 11 12 12 12 13 14 13 14 13 13 13 13 13 14 14 14 14 14 13 13 13 13 12 12 11 10 11 12 12 12 12
11 12 12 12 12 13 13 14 13 14 13 13 14 13 14 14 15 15 14 14 14 14 13 13 13 11 10 11 13 13 13 13
12 12 11 13 12 13 13 13 13 14 15 15 15 15 15 15 15 14 14 14 14 14 14 13 13 12 10 11 13 12 12 12
12 13 14 13 12 13 13 13 15 15 15 15 15 15 15 14 14 14 14 14 14 14 14 15 14 13 11 10 11 11 12 13
12 14 14 14 12 13 13 15 15 15 15 15 15 15 14 14 14 14 14 13 14 14 14 15 16 15 12 12 12 11 13 13
16 15 15 17 17 15 15 15 15 15 15 15 15 15 14 14 14 13 13 13 13 14 14 15 16 15 15 14 13 13 12 12
15 16 17 18 17 16 15 15 15 15 16 15 15 14 15 15 14 14 15 13 13 13 14 15 16 16 14 14 14 13 12 13
19 18 18 17 18 17 15 15 15 16 16 16 16 16 16 16 16 14 14 13 13 14 15 17 13 12 12 11 12 11 11 13
19 19 19 20 20 19 17 15 15 16 17 17 17 17 16 16 15 15 13 12 12 12 12 13 12 12 12 11 11 11 13 16
20 20 20 21 22 19 17 17 17 17 18 18 18 17 17 16 15 15 16 18 18 14 13 13 13 13 12 12 15 18 19 17
22 22 22 23 24 21 17 17 17 18 17 17 18 18 18 17 18 18 18 19 20 23 19 18 15 15 16 16 18 19 23 25

GFSFLT1_con_lsi_138.txt.gz
Lid_Strength_Index
5 6 6 6 5 2 2 2 1 1 1 1 1 1 1 1 1 1 0 0 0 1 0 0 0 0 0 1 1 1 1 2
5 5 6 6 6 4 2 2 2 1 1 1 1 1 1 1 1 1 0 0 0 1 1 1 1 1 1 1 1 2 2 1
6 5 6 7 7 5 3 2 2 1 1 1 1 1 1 1 1 0 1 0 1 1 1 1 1 1 1 2 2 2 2 2
7 7 8 8 7 6 4 2 2 1 2 2 1 1 1 1 1 1 1 1 1 2 2 2 1 1 1 1 1 1 1 2
8 8 9 9 8 7 5 3 2 2 2 2 2 2 1 1 1 1 1 1 2 2 2 2 2 2 2 2 2 4 5 6
8 8 8 9 9 9 7 5 3 3 3 3 2 2 2 2 2 2 2 2 2 3 3 4 4 6 6 6 6 6 7 7
8 9 9 9 10 10 9 7 5 3 4 3 4 5 5 4 5 5 6 5 5 7 8 8 10 10 9 7 7 7 7 7
6 7 8 8 9 10 9 9 7 5 5 8 8 9 8 9 10 11 10 10 10 9 9 9 9 10 10 10 7 8 8 8
5 5 7 8 8 8 8 10 9 8 8 9 8 9 11 11 12 11 10 9 9 8 8 9 10 11 11 12 8 8 8 8
4 4 7 8 8 9 9 10 10 10 10 11 10 12 12 12 11 11 11 11 10 11 11 12 12 11 11 11 10 11 11 11
5 6 8 8 9 10 10 10 10 10 11 11 11 12 12 11 12 13 11 12 12 13 12 13 12 12 11 11 12 13 13 12
5 7 7 9 10 10 10 11 9 11 12 12 12 13 12 13 14 13 12 12 13 13 13 13 13 12 11 12 13 12 13 12
6 8 7 10 10 10 10 9 11 11 12 13 13 13 13 14 13 13 13 13 13 14 14 14 14 13 11 11 11 11 13 13
8 8 9 11 10 11 10 12 12 13 14 14 14 14 13 13 13 13 13 12 13 14 14 15 14 13 12 11 11 11 12 12
12 12 12 12 12 11 13 13 14 14 14 15 14 14 14 13 13 12 12 13 13 14 14 15 15 14 15 14 12 12 12 11
13 12 13 13 13 14 14 14 14 14 15 15 14 14 14 14 13 13 13 12 13 14 14 15 15 14 14 14 13 12 12 12
16 15 16 15 15 15 14 14 14 15 15 15 14 14 14 14 15 14 14 13 13 13 13 15 13 13 13 13 12 12 11 13
18 17 17 17 17 15 14 14 14 15 15 15 15 15 14 14 15 16 15 14 14 14 14 13 13 12 12 12 11 11 11 13
19 19 19 19 19 17 15 15 15 15 15 15 15 15 15 15 15 15 16 16 16 14 14 13 12 12 11 11 12 13 13 14
22 23 22 23 23 21 16 16 16 16 16 16 15 15 15 14 15 15 16 17 18 18 15 14 13 12 12 13 14 15 16 17

GFSFLT1_con_lsi_141.txt.gz
Lid_Strength_Index
3 4 3 2 2 3 2 2 2 1 1 1 1 1 1 1 1 1 1 0 1 1 1 1 0 0 0 1 1 2 2 2
4 3 3 2 3 4 3 2 2 2 1 1 1 1 1 1 1 1 1 1 1 1 1 1 1 0 1 1 2 2 2 2
5 5 4 4 3 4 4 4 2 2 2 2 1 1 1 1 1 1 1 1 1 1 1 1 1 1 1 2 2 3 3 3
6 6 6 5 5 5 5 4 2 2 2 2 2 2 2 1 1 1 1 1 1 1 1 1 1 1 1 1 2 2 2 3
6 6 6 6 6 6 6 4 3 2 2 2 2 2 2 1 1 1 1 1 1 1 1 1 1 2 2 2 2 2 3 3
5 5 5 6 7 7 7 6 3 3 2 2 2 1 1 2 1 1 1 1 1 1 1 2 2 3 3 4 3 5 6 7
5 6 6 6 6 7 8 7 4 3 3 2 2 2 2 2 2 3 3 2 3 3 3 4 8 10 9 6 6 7 8 8
5 5 5 6 6 7 7 7 7 5 4 5 4 5 4 6 7 8 7 8 8 7 8 8 9 11 10 10 7 7 7 8
4 4 4 4 5 6 7 8 7 7 6 6 8 8 10 9 8 10 10 9 10 10 10 11 11 11 11 11 8 8 8 9
3 4 3 3 5 7 8 8 9 9 8 8 8 9 11 10 10 10 11 11 10 11 11 11 12 11 11 10 10 11 12 12
3 3 3 3 5 8 9 9 10 10 9 9 9 10 10 10 11 14 11 12 12 13 12 12 12 11 11 10 12 13 13 14
3 3 3 4 7 9 9 10 9 10 11 11 10 10 9 11 13 12 13 13 13 13 13 13 12 12 11 11 13 13 13 14
4 4 4 5 8 8 9 8 10 10 11 12 12 12 12 13 14 13 13 14 14 14 14 14 14 13 11 11 11 12 13 14
10 9 6 8 9 9 8 10 11 11 12 13 13 13 13 13 14 13 13 13 14 14 14 14 14 13 12 11 11 12 14 14
14 13 11 10 12 10 11 12 12 12 13 13 13 13 13 13 13 12 12 12 13 14 14 14 14 14 13 13 13 13 14 14
16 15 15 13 13 14 13 13 13 13 13 13 13 14 13 13 13 12 12 12 13 13 13 14 15 14 13 13 13 14 14 14
17 17 17 16 15 15 14 14 14 14 14 13 13 13 13 13 14 13 13 12 12 12 13 14 13 13 13 13 13 13 13 14
19 19 18 18 19 19 15 14 14 14 14 14 14 14 14 14 14 16 14 13 12 13 13 13 13 13 13 13 13 12 13 14
22 23 22 22 22 22 20 15 15 14 14 14 14 14 14 14 14 14 15 16 16 13 14 13 13 13 13 13 13 14 13 14
25 25 24 24 24 23 21 16 15 15 15 14 14 14 14 14 14 15 15 16 16 16 14 14 13 13 13 12 14 14 15 15

GFSFLT1_con_lsi_144.txt.gz
Lid_Strength_Index
6 6 5 4 3 3 3 2 2 2 2 2 1 1 1 1 1 1 1 1 1 1 2 2 2 2 2 2 2 2 2 2
6 6 6 5 4 4 3 3 2 2 2 2 2 1 1 1 1 1 1 1 1 1 2 2 2 3 3 2 2 2 2 2
7 7 7 7 6 5 5 4 2 2 2 2 2 1 2 2 1 1 1 1 1 1 2 2 2 3 2 2 2 2 3 3
7 8 8 7 7 6 5 5 4 2 2 3 2 2 2 2 1 1 1 1 1 2 2 2 2 3 2 2 1 2 3 3
8 8 7 7 8 7 7 6 5 3 3 3 3 2 2 2 2 2 1 2 2 2 2 2 2 2 2 2 2 3 3 4
7 7 7 7 8 8 8 7 6 4 4 3 2 3 2 2 2 2 2 2 2 2 2 3 3 3 3 4 3 3 4 5
5 5 6 7 7 8 8 8 7 5 4 3 3 3 3 3 4 3 3 3 3 3 3 3 5 8 8 5 4 5 6 7
5 5 5 6 7 8 8 8 8 7 6 6 6 7 6 7 7 7 6 6 6 5 5 4 6 9 9 9 5 6 6 7
6 6 5 5 7 7 8 8 9 9 8 9 9 8 9 9 8 9 8 7 8 8 6 5 7 10 10 11 7 7 8 8
9 9 8 5 5 7 9 9 10 11 11 10 9 9 10 10 9 8 9 10 9 9 9 8 11 11 11 10 10 11 11 11
11 10 10 9 7 8 10 11 10 11 11 10 10 9 9 8 9 11 9 10 11 13 10 12 11 12 11 10 11 13 13 13
12 12 11 11 11 10 9 11 11 11 12 12 10 9 8 8 10 12 11 13 13 13 14 14 13 12 11 10 12 12 14 14
14 14 13 12 12 12 10 9 11 12 12 12 11 11 10 11 12 12 12 12 13 14 14 14 14 13 11 11 12 12 14 15
14 15 15 14 14 14 13 12 11 12 12 12 13 12 12 12 13 13 12 12 13 13 13 14 14 13 12 12 12 12 14 14
16 16 17 16 16 15 15 14 13 12 12 13 13 13 12 12 12 11 12 12 12 12 13 14 14 14 13 13 12 13 14 14
18 18 17 17 16 16 16 15 15 14 14 13 13 13 13 12 12 12 11 10 12 12 12 14 14 13 12 13 14 14 14 14
21 20 19 19 19 18 19 18 15 15 14 13 13 14 13 13 14 12 11 11 11 11 12 13 11 12 12 12 12 13 13 14
24 21 22 22 21 20 21 20 16 14 14 14 14 14 14 14 13 14 13 11 11 12 12 12 12 12 12 12 12 12 13 15
24 24 24 23 23 23 22 21 17 15 14 14 14 14 14 14 13 14 14 14 14 12 12 12 13 13 13 12 13 14 14 14
24 25 25 25 24 23 23 22 20 16 15 15 14 15 14 15 14 14 14 15 15 15 14 14 13 13 13 13 14 14 15 15

GFSFLT1_con_lsi_147.txt.gz
Lid_Strength_Index
7 6 6 6 5 4 3 2 2 2 1 2 1 1 1 1 1 2 2 2 2 2 2 3 3 3 2 2 3 3 1 1
8 8 7 6 6 5 4 4 2 2 2 2 2 1 1 1 1 1 1 1 2 2 2 2 2 2 2 2 3 3 2 2
9 8 7 7 7 6 5 5 4 3 2 2 2 2 2 2 1 1 1 1 1 2 2 2 2 2 3 3 3 3 3 3
8 9 8 8 7 7 6 6 6 5 3 2 2 2 2 2 1 1 1 1 1 2 2 2 2 2 2 2 3 3 3 3
7 8 7 7 7 8 7 7 6 6 5 4 2 2 2 1 1 2 1 2 2 2 2 2 2 2 3 2 3 3 3 3
8 7 7 6 6 7 8 7 7 7 6 5 3 2 2 2 2 2 2 2 2 2 2 2 2 2 3 3 3 3 3 4
9 9 9 9 9 8 6 7 7 8 7 5 4 4 4 3 3 3 3 3 3 2 2 3 3 6 7 4 3 3 4 5
10 10 10 10 9 10 10 8 6 8 8 8 6 6 5 4 5 6 4 3 4 3 3 3 3 8 9 9 3 3 4 4
11 11 11 10 10 10 11 11 9 8 9 9 9 8 8 9 7 6 6 5 5 4 3 3 3 9 9 10 3 5 4 4
12 12 12 11 11 12 12 12 11 10 10 10 10 10 10 10 8 6 7 6 5 5 5 4 5 10 10 10 5 6 8 6
13 13 14 13 13 13 14 14 12 11 11 10 11 12 11 10 9 8 7 6 7 9 7 9 5 10 10 9 7 12 12 15
15 15 15 14 14 15 15 15 14 14 13 12 11 12 11 10 10 9 8 10 10 10 11 12 11 11 10 10 11 10 14 13
16 16 15 15 15 15 16 15 14 15 14 13 12 12 12 12 11 11 11 10 10 11 11 11 12 12 10 10 9 10 11 13
17 17 17 16 16 16 16 15 16 16 15 14 12 12 12 12 12 12 11 10 10 10 9 10 13 12 11 10 11 11 13 13
19 20 20 19 18 18 17 17 18 18 16 14 13 13 12 12 12 12 11 10 10 10 10 11 13 12 12 12 12 13 14 13
21 21 22 21 20 20 19 19 20 19 17 14 14 13 13 12 12 12 11 10 10 10 10 12 13 12 12 12 13 13 13 14
22 22 23 23 23 21 20 20 21 20 18 14 13 13 13 13 13 11 11 11 10 10 10 13 10 11 11 11 11 12 12 14
23 22 23 24 24 22 21 21 21 20 19 15 14 13 13 14 14 14 13 11 10 10 11 11 11 11 11 11 12 12 12 13
23 23 24 24 24 22 22 22 21 19 17 15 15 14 13 13 13 13 13 14 14 12 11 11 11 12 12 11 12 13 13 13
23 23 24 25 25 22 22 22 21 19 18 19 18 15 15 13 13 13 14 14 15 14 13 13 12 12 12 12 13 14 14 14